Flag for Switzerland Weather past 2 weeks in Lucerne, Lucerne, Switzerland

Now
53 °F

Cool.


Feels Like: 53 °F
Forecast: 38 / 70 °F
Wind: 1 mph from Southwest

Location: Giswil

Current Time: Sep 1, 2014 at 9:31:48 AM

Latest Report: Sep 1, 2014 at 8:00 AM


Visibility: N/A

Pressure: 30.14 "Hg

Humidity: 97%

Dew point: 52 °F

Location of LucerneLocation

Historic Weather in Lucerne — Graph

°F

Lucerne temperature yesterday

Maximum temperature yesterday: 69 °F (at 1:00 PM)
Minimum temperature yesterday: 54 °F (at 11:00 PM)
Average temperature yesterday: 61 °F

Past Weeks' High & Low Weather Summary

 TemperatureHumidityPressure
High75 °F (Aug 28, 4:00 PM)100% (Aug 30, 1:00 AM)30.24 "Hg (Aug 30, 1:00 AM)
Low46 °F (Aug 18, 6:00 AM)47% (Aug 17, 3:00 PM)29.78 "Hg (Aug 26, 6:00 AM)
Average60 °F84%30.03 "Hg
* Reported Aug 17 8:00 AM — Sep 1 8:00 AM, Lucerne, Weather by CustomWeather, © 2014

Note: Actual official high and low records may vary slightly from our data, if they occured in-between our weather recording intervals... More about our weather records

Advertising

Lucerne weather history for previous 24 hours

 ConditionsComfort  
Time TempWeatherWind HumidityBarometerVisibility
8:00 AM
Sep 1
53 °FCool.1 mph97%30.14 "HgN/A
7:00 AM52 °FCool.1 mph97%30.12 "HgN/A
6:00 AM52 °FCool.2 mph97%30.11 "HgN/A
5:00 AM53 °FCool.1 mph97%30.11 "HgN/A
4:00 AM53 °FCool.5 mph96%30.11 "HgN/A
3:00 AM54 °FCool.6 mph95%30.10 "HgN/A
2:00 AM53 °FCool.1 mph96%30.09 "HgN/A
1:00 AM54 °FCool.No wind97%30.09 "HgN/A
12:00 AM54 °FCool.3 mph96%30.10 "HgN/A
11:00 PM
Aug 31
54 °FCool.1 mph97%30.11 "HgN/A
10:00 PM55 °FCool.3 mph94%30.11 "HgN/A
9:00 PM55 °FCool.5 mph94%30.09 "HgN/A
8:00 PM56 °FCool.5 mph95%30.07 "HgN/A
7:00 PM56 °FCool.7 mph94%30.05 "HgN/A
6:00 PM58 °FCool.6 mph91%30.03 "HgN/A
5:00 PM59 °FCool.8 mph90%30.03 "HgN/A
4:00 PM63 °FMild.10 mph83%29.99 "HgN/A
3:00 PM67 °FMild.1 mph69%29.97 "HgN/A
2:00 PM68 °FMild.3 mph72%29.98 "HgN/A
1:00 PM69 °FMild.3 mph69%29.98 "HgN/A
12:00 PM68 °FMild.3 mph68%30.00 "HgN/A
11:00 AM66 °FMild.2 mph78%30.01 "HgN/A
10:00 AM64 °FMild.1 mph85%30.03 "HgN/A
9:00 AM62 °FCool.No wind93%30.05 "HgN/A
Weather by CustomWeather, © 2014

See weather overviewHow to use our weather pages